www.pogodaiklimat.ru

Погода и климат >> Архив погоды >> Россия >> Камчатский край >> Петропавловск-Камч. 2


ПОГОДА в Петропавловск-Камч. 2

  • Прогноз погоды в Петропавловск-Камч. 2
  • Монитор погоды в Петропавловск-Камч. 2

АРХИВ ПОГОДЫ в Петропавловск-Камч. 2

Время (UTC), дата Ветер
(напр.,м/с)
 
Видим.   Явления Облачность Т
(С)
Тd
(С)
f
(%)
Тe
(С)
Тes
(С)
Комфортность P
(гПа)
Po
(гПа)
Тmin
(С)
Tmax
(С)
R
(мм)
R24
(мм)
S
(см)
09 14.07 СВ 1 50 км 9/1 600 м
[Sc Ci fib]
+15.0 +7.9 62 +16 +16 1012.8 1002.8 +17.7
12 14.07 СЗ 1 50 км 6/0
[Ci fib]
+12.0 +8.4 79 +12 +12 1013.3 1003.2
15 14.07 С 2 20 км 1/0
[Ci fib]
+11.8 +8.5 80 +11 +11 1012.9 1002.8
18 14.07 С 2 н/о н/о +11.3 +8.0 80 +10 +10 1012.6 1002.5
21 14.07 СЗ 3 50 км 3/0
[Ci fib]
+14.6 +8.9 69 +14 +18 1011.9 1001.9 +9.8
00 15.07 С 1 50 км 3/0
[Ci fib]
+20.5 +10.7 53 +23 +39 комфорт 1010.6 1000.8
03 15.07 Ю 2 50 км ясно +23.7 +10.7 44 +25 +39 комфорт 1010.6 999.3
06 15.07 Ю 1 50 км 3/0
[Ci fib]
+24.4 +11.6 45 +26 +32 жарко 1008.5 998.9
09 15.07 З 1 50 км 8/0
[Ci]
+19.9 +12.2 61 +23 +23 комфорт 1009.3 999.5 +24.8
12 15.07 СЗ 2 20 км 4/0
[Ci fib]
+14.4 +10.2 76 +14 +14 1010.6 1000.6
15 15.07 СЗ 2 20 км 4/0
[Ci fib]
+12.3 +9.4 82 +11 +11 1010.6 1000.6
18 15.07 СЗ 1 50 км 8/0
[Cs]
+13.2 +10.5 84 +13 +13 1010.8 1000.8
21 15.07 СЗ 2 50 км ясно +18.1 +11.9 67 +19 +25 1010.8 1001.0 +11.7
00 16.07 СЗ 1 20 км ясно +25.1 +12.2 45 +27 +44 жарко 1010.5 1000.9
03 16.07 Ю 3 20 км ясно +23.9 +13.4 52 +26 +38 жарко 1010.0 1000.4
06 16.07 ЮВ 3 20 км ясно +23.9 +13.4 52 +26 +31 жарко 1010.0 1000.3
09 16.07 В 3 20 км ясно +20.6 +11.2 55 +23 +23 комфорт 1010.4 1000.6 +25.7
12 16.07 штиль 0 20 км ясно +13.9 +11.6 86 +13 +13 1012.2 1002.2
15 16.07 СЗ 1 20 км ясно +13.7 +10.9 83 +14 +14 1012.5 1002.5
18 16.07 С 1 20 км ясно +13.4 +10.8 84 +14 +14 1013.1 1003.1
21 16.07 СЗ 1 50 км ясно +18.2 +12.6 70 +20 +26 1013.1 1003.3 +13.0
00 17.07 Ю 3 20 км 1/1 600 м
[Cu hum]
+20.6 +14.2 67 +24 +34 комфорт 1012.5 1002.8
03 17.07 Ю 3 20 км 1/1 600 м
[Cu hum]
+21.2 +14.6 66 +24 +35 комфорт 1011.8 1002.1
06 17.07 В 4 20 км ясно +20.8 +12.8 60 +23 +27 комфорт 1011.5 1001.8
09 17.07 ЮВ 2 20 км ясно +14.7 +11.4 81 +14 +14 1012.7 1002.7 +23.4
12 17.07 штиль 0 20 км 3/3 300 м
[St]
+11.4 +9.9 90 +11 +11 1013.9 1003.8
15 17.07 штиль 0 200 м туман ?/? +11.3 +10.2 93 +11 +11 1014.1 1004.0
18 17.07 штиль 0 200 м туман ?/? +9.9 +8.9 93 +9 +9 1014.0 1003.8
21 17.07 З 1 20 км туман на расстоянии 3/1 300 м
[St Ci fib]
+14.1 +11.9 87 +14 +20 1014.0 1004.0 +9.9
00 18.07 Ю 2 20 км {туман} 8/0
[Ci fib]
+16.5 +12.4 77 +17 +29 опасность
простуды
1013.5 1003.6
06 18.07 Ю 1 50 км 10/0
[Ci]
+21.2 +12.0 56 +23 +28 комфорт 1013.0 1003.2
09 18.07 СЗ 1 50 км 8/1 600 м
[Sc Ac trans Ci fib]
+19.7 +10.8 56 +22 +22 комфорт 1014.0 1004.2 +22.7
12 18.07 СЗ 1 20 км 9/0
[Ci fib]
+15.7 +11.5 76 +16 +16 1015.6 1005.6
15 18.07 СЗ 1 50 км 6/1 600 м
[Sc Ci fib]
+15.4 +11.8 79 +16 +16 1016.3 1006.3
18 18.07 С 1 50 км 3/1 600 м
[Sc Ci fib]
+15.7 +11.8 78 +16 +16 1017.2 1007.2
21 18.07 СЗ 2 50 км 3/1 1000 м
[Sc Ci fib]
+19.7 +13.4 67 +22 +27 комфорт 1017.9 1008.0 +14.7
00 19.07 С 2 50 км 4/3 600 м
[Cu Sc Ci fib]
+23.5 +12.4 50 +25 +35 комфорт 1017.8 1008.1
03 19.07 Ю 2 50 км 3/3 600 м
[Cu Sc Ci fib]
+24.2 +13.7 52 +26 +36 жарко 1017.4 1007.7
06 19.07 ЮЗ 2 50 км 3/1 1000 м
[Sc Ci fib]
+25.1 +13.7 49 +27 +32 жарко 1017.2 1007.5
09 19.07 З 1 50 км 1/0
[Ci fib]
+21.1 +12.7 59 +23 +23 комфорт 1018.8 1009.0 +26.3
12 19.07 С 1 20 км ясно +17.9 +12.6 71 +19 +19 1020.3 1010.4
15 19.07 С 1 50 км 5/0
[Ci fib]
+16.2 +12.3 78 +17 +17 1020.3 1010.3
18 19.07 С 2 50 км 8/0
[Ac As Ci fib]
+16.3 +12.1 76 +16 +17 1020.4 1010.4
21 19.07 СЗ 2 50 км 9/0
[Ac und]
+18.4 +12.1 67 +19 +21 1020.9 1011.0 +15.8
00 20.07 СЗ 2 20 км 9/3 1000 м
[Sc Ac As]
+20.4 +12.9 62 +23 +27 комфорт 1020.6 1010.7
03 20.07 З 1 50 км 9/3 1000 м
[Sc Ac trans]
+21.9 +13.8 60 +25 +30 комфорт 1020.1 1010.3
06 20.07 С 1 50 км 9/3 1000 м
[Sc Ac trans]
+19.9 +13.9 68 +23 +25 комфорт 1019.8 1009.9
09 20.07 СЗ 1 50 км {ливн. осадки} 9/8 600 м
[Cb calv Ac lent]
+18.3 +13.5 74 +20 +20 1019.7 1009.8 +22.0
12 20.07 СЗ 1 20 км слаб. ливневой дождь 10/6 600 м
[Cb cap Ac trans Ci fib]
+16.9 +12.6 76 +18 +18 1019.6 1009.6
21 20.07 С 2 50 км 8/3 600 м
[Sc Ac trans]
+18.3 +12.3 68 +19 +21 1017.8 1007.9 +15.7 0.0
00 21.07 СЗ 2 20 км 8/5 600 м
[Sc Ac trans]
+20.0 +12.6 62 +22 +27 комфорт 1016.4 1006.6

 

Местоположение метеостанции Петропавловск-Камч. 2 (Камчатский край, Россия): широта 53.08 долгота 158.50 высота над уровнем моря 84 м.

В архиве по умолчанию представлена погода в Петропавловск-Камч. 2 за последнюю неделю. Архивные данные за месяц целиком и за предыдущие месяцы, начиная с января 2011 года, Вы можете получить, выбрав интересующий диапазон дат из раскрывающегося списка и нажав кнопку "Ввод!".


*Определитесь, кто Вы:
робот инопланетянин человек

Внимание! Время в таблицах - всемирное. Для получения местного времени необходимо прибавить поправку, которая равна 12 ч.

Смотрите также архив погоды в соседних городах и на ближайших метеорологических станциях:

Погода в Сосновке (Камчатский край, Россия) (13 км)
Погода в Петропавловск-Камчатском (Камчатский край, Россия) (24 км)
Погода в Петропавловском Маяке (Камчатский край, Россия) (26 км)
Погода в Начиках (Камчатский край, Россия) (54 км)
Погода в Пущино (Камчатский край, Россия) (127 км)
Погода в Водопадной (Камчатский край, Россия) (144 км)
Погода в Семячике (Камчатский край, Россия) (148 км)
Погода в Большерецке (Камчатский край, Россия) (150 км)
Погода в Мильково (Камчатский край, Россия) (178 км)
Погода в Соболево (Камчатский край, Россия) (218 км)

Пояснения к столбцам:

Ветер - указаны скорость ветра в м/с - средняя за 10 мин, порывы в срок и между сроками (в фигурных скобках) и направление, откуда дует ветер: С - северный, СВ - северо-восточный, В - восточный, ЮВ - юго-восточный, Ю - южный, ЮЗ - юго-западный, З - западный, СЗ - северо-западный.
Видимость - горизонтальная дальность видимости в метрах или километрах. При видимости от 1 до 10 км при отсутствии осадков обычно наблюдается дымка, при ухудшении видимости до 1 км и менее - туман. В сухую погоду видимость может ухудшаться дымом, пылью или мглою.
Явления - указаны атмосферные явления, наблюдавшиеся в срок или в последний час перед сроком; фигурными скобками обозначены явления, наблюдавшиеся между сроками (за 1-3 часа до срока); квадратными скобками обозначены град или гололедные отложения с указанием их диаметра в мм.
Облачность - указаны через наклонную черту общая и нижняя облачность в баллах и высота нижней границы облаков в метрах; квадратными скобками обозначены формы облаков: Ci - перистые, Cs - перисто-слоистые, Cc - перисто-кучевые, Ac - высококучевые, As - высокослоистые, Sc - слоисто-кучевые, Ns - слоисто-дождевые, Cu - кучевые, Cb - кучево-дождевые. Подробнее классификацию облаков см. в Атласе облаков (PDF).
T - Температура воздуха - температура, измеренная на высоте 2 м над землей.
Td - Температура точки росы - температура, при понижении до которой содержащийся в воздухе водяной пар достигнет насыщения.
f - Относительная влажность воздуха - влажноcть воздуха, измеренная на высоте 2 м над землей.
Te - Эффективная температура - температура, которую ощущает одетый по сезону человек в тени. Характеристика душности погоды. При расчете учитывается влияние влажности воздуха и скорости ветра на теплоощущения человека.
Tes - Эффективная температура на солнце - температура, которую ощущает человек, с поправкой на солнечный нагрев. Характеристика знойности погоды. Зависит от высоты солнца над горизонтом, облачности и скорости ветра. Ночью, в пасмурную погоду, а также при ветре 12 м/с и более поправка равна нулю.
P - Атмосферное давление - приведенное к уровню моря атмосферное давление.
Po - Атмосферное давление - измеренное на уровне метеостанции атмосферное давление.
Tmin - Минимальная температура - минимум температуры воздуха на высоте 2 м над землей.
Tmax - Максимальная температура - максимум температуры воздуха на высоте 2 м над землей.
R - Количество осадков - Количество выпавших осадков за период времени, мм. При наведении курсора мыши на число - период времени, за который выпало указанное количество осадков.
R24 - Количество осадков - Количество выпавших осадков за 24 часа, мм.
S - Снежный покров - Высота снежного покрова, см. При наведении курсора мыши на число - состояние снежного покрова и степень покрытия местности в баллах.